Flag for U.S.A. Weather past 2 weeks in Wailuku, Hawaii, U.S.A.

Now
72 °F

Partly cloudy.


Feels Like: 73 °F
Forecast: 69 / 83 °F
Wind: 17 mph from Northeast

Location: Kahului Airport

Current Time: Apr 21, 2015 at 12:51:21 AM

Latest Report: Apr 20, 2015 at 11:54 PM


Visibility: 10 mi

Pressure: 30.08 "Hg

Humidity: 78%

Dew point: 65 °F

Location of WailukuLocation

Historic Weather in Wailuku — Graph

°F

Wailuku temperature yesterday

Maximum temperature yesterday: 81 °F (at 2:54 PM)
Minimum temperature yesterday: 70 °F (at 6:54 AM)
Average temperature yesterday: 74 °F

Past Weeks' High & Low Weather Summary

 TemperatureHumidityPressure
High85 °F (Apr 17, 11:54 AM)90% (Apr 15, 3:54 AM)30.17 "Hg (Apr 15, 3:54 AM)
Low63 °F (Apr 7, 5:54 AM)46% (Apr 17, 2:54 PM)29.96 "Hg (Apr 6, 3:54 PM)
Average75 °F69%30.08 "Hg
* Reported Apr 5 11:54 PM — Apr 20 11:54 PM, Wailuku, Weather by CustomWeather, © 2015

Note: Actual official high and low records may vary slightly from our data, if they occured in-between our weather recording intervals... More about our weather records

Advertising

Wailuku weather history for previous 24 hours

 ConditionsComfort  
Time TempWeatherWind HumidityBarometerVisibility
11:54 PM
Mon, Apr 20
72 °FPartly cloudy.17 mph78%30.08 "Hg10 mi
10:54 PM71 °FPartly cloudy.12 mph84%30.10 "Hg10 mi
9:54 PM70 °FPartly cloudy.14 mph84%30.10 "Hg10 mi
8:54 PM70 °FLight rain. Passing clouds.14 mph84%30.09 "Hg10 mi
7:54 PM72 °FRain. Partly cloudy.15 mph78%30.08 "Hg8 mi
6:54 PM72 °FLight rain. Partly cloudy.12 mph81%30.08 "Hg5 mi
5:54 PM75 °FScattered clouds.22 mph66%30.05 "Hg10 mi
4:54 PM76 °FScattered clouds.15 mph72%30.03 "Hg10 mi
3:54 PM77 °FLight rain. Broken clouds.24 mph69%30.03 "Hg10 mi
2:54 PM81 °FLight rain. Partly sunny.30 mph58%30.04 "Hg10 mi
1:54 PM79 °FLight rain. Partly sunny.17 mph65%30.06 "Hg10 mi
12:54 PM79 °FLight rain. Scattered clouds.22 mph65%30.08 "Hg8 mi
11:54 AM79 °FScattered clouds.23 mph62%30.10 "Hg10 mi
10:54 AM78 °FScattered clouds.22 mph62%30.11 "Hg10 mi
9:54 AM75 °FScattered clouds.21 mph74%30.13 "Hg10 mi
8:54 AM73 °FScattered clouds.20 mph84%30.13 "Hg10 mi
7:54 AM72 °FBroken clouds.15 mph81%30.12 "Hg10 mi
6:54 AM70 °FBroken clouds.13 mph84%30.11 "Hg10 mi
5:54 AM72 °FOvercast.15 mph76%30.09 "Hg10 mi
4:54 AM72 °FLight rain. Passing clouds.13 mph76%30.10 "Hg10 mi
3:54 AM73 °FOvercast.13 mph74%30.09 "Hg10 mi
2:54 AM72 °FPassing clouds.8 mph76%30.11 "Hg10 mi
1:54 AM72 °FMostly cloudy.10 mph76%30.13 "Hg10 mi
12:54 AM73 °FMostly cloudy.13 mph74%30.15 "Hg10 mi
Weather by CustomWeather, © 2015

See weather overviewHow to use our weather pages